FENGYUN 1C DEB, 31357

Orbit data source: Space-Track

FENGYUN 1C DEB, 31357 is space debris in SSO originally from a launch on Mon, 10 May 1999 UTC launched from the Taiyaun Space Center, China (TSC). Fengyun 1C debris stems from the Chinese weather satellite Fengyun-1C, which was intentionally destroyed by a Chinese anti-satellite missile in 2007. This event dramatically increased the amount of space debris, with thousands of trackable fragments posing hazards to satellites and human spaceflight. The Fengyun 1C debris cloud has become a focal point in discussions about space sustainability and the need for international regulations to prevent the creation of new debris.

Loading next visibility...
Identifier
31357, 1999-025BRM
Orbit
SSO
Country
Flag of CNCN / PRC
Related business
Manufacturer
Unknown
Mission
Spacecraft
Bus & Motor
Unknown
Mass
Unknown
Launch date (UTC)
1999-05-10 (27 years ago)
Launch vehicle
Unknown
Launch site
Taiyaun Space Center, China (TSC)
Object type
Payload
Rocket body
Debris
Shape & HBR
Unknown shape, 0.1 m
Radar Cross Section
Small (<0.1 m²)

Expand to show TLE details & history
Last TLE update: 2 days ago

TLE from 2 days ago
0 FENGYUN 1C DEB
1 31357U 99025BRM 25351.84060581  .00000038  00000-0  38776-4 0  9998
2 31357  98.6105  22.6941 0048816 277.6530 261.0882 14.18527711967760
Epoch: 2025-12-17T20:10Z
TLE epoch observation values (Epoch: 2025-12-17T20:10:28.341Z)
Latitude
1.68467°
Longitude
173.62515°
Altitude
838.669 km
Speed
7.431 km/s
True Right ascension
13h 31m 47s
True Declination
1° 40' 29"
Sunlit
Object was in daylight at epoch
Visualization orbit readout
Latitude
Unknown
Longitude
Unknown
Altitude
Unknown
Speed
Unknown
Apparent Right ascension
Unknown
Apparent Declination
Unknown
Sunlit
N/A
Visualization observer readout
Local Sidereal Time
07:10:17
Azimuth
Unknown
Elevation
Unknown
Doppler factor
Unknown
Orbital elements
Apogee altitude
862.667 km
Perigee altitude
792.317 km
Semi-major axis
7,205.629 km
Eccentricity
0.00488
Inclination
98.6105°
RAAN
22.6941°
Arg. of periapsis
277.653°
True anomaly
260.53609°
Mean anomaly
261.0882°
Eccentric anomaly
260.81209°
Mean motion
3.54842 °/min
Orbital period
101.45 mins
BSTAR
0.000038776
Loading maneuver chart data...
Computing Atmospheric mass density...

Documentation

Showing up to 5 results
|